Location: Claflin County Park
(44.8478°N, 87.5507°W)
Time: 07:05:29
(UTC+00:00)

USA 234 - Pass Details

Date: 19 March 2026
Orbit: 1102 x 1106 km, 123.0° (Epoch: 4 January)

Event Time Altitude Azimuth Distance (km) Brightness Sun altitude
Exits shadow 04:22:01 38° 314° (NW) 1,622 4.4 -40.9°
Drops below altitude 10° 04:25:47 10° 310° (NW) 2,969 6.1 -41.2°
Sets 04:28:16 0° 310° (NW) 3,930 6.9 -41.5°
